KB3KAV Weather Reports


Display with metric or nautical units.
time (UTC)temp
F
wind
direction
speed
MPH
gust
MPH
rain 1hr
in
rain 24hr
in
rain mn
in
humidity
%
barometer
mb
20260905084613 63 89 0.0 0.0 0.00 0.00 0.00 95 1040.9
20260905083608 64 90 0.0 0.0 0.00 0.00 0.00 95 1040.7
20260905082606 64 90 0.0 0.0 0.00 0.00 0.00 95 1041.2
20260905081601 64 90 0.0 0.0 0.00 0.00 0.00 95 1041.1
20260905080556 64 89 0.0 0.0 0.00 0.00 0.00 95 1041.5
20260905075550 65 90 0.0 0.0 0.00 0.00 0.00 95 1041.2
20260905074549 65 90 0.0 0.0 0.00 0.00 0.00 95 1041.4
20260905073547 65 90 0.0 0.0 0.00 0.00 0.00 95 1041.0
20260905072547 65 90 0.0 0.0 0.00 0.00 0.00 95 1041.2
20260905071545 66 91 0.0 0.0 0.00 0.00 0.00 95 1041.3
20260905070541 66 91 0.0 0.0 0.00 0.00 0.00 95 1041.2
20260905065540 66 95 0.0 0.0 0.00 0.00 0.00 95 1041.3
20260905064535 66 96 0.0 0.0 0.00 0.00 0.00 95 1041.3
20260905063535 66 86 0.0 0.0 0.00 0.00 0.00 95 1041.5
20260905062532 66 86 0.0 0.0 0.00 0.00 0.00 95 1041.6
20260905061528 66 86 0.0 0.0 0.00 0.00 0.00 95 1041.5
20260905060523 66 86 0.0 0.0 0.00 0.00 0.00 95 1041.8
20260905055523 66 86 0.0 0.0 0.00 0.00 0.00 95 1041.6
20260905054520 66 86 0.0 0.0 0.00 0.00 0.00 95 1041.8
20260905053515 66 86 0.0 0.0 0.00 0.00 0.00 95 1041.9
20260905052510 66 87 0.0 1.0 0.00 0.00 0.00 95 1042.2
20260905051505 66 87 0.0 0.0 0.00 0.00 0.00 95 1042.3
20260905050504 66 86 0.0 1.0 0.00 0.00 0.00 95 1042.1
20260905045501 67 87 0.0 0.0 0.00 0.00 0.00 95 1042.1
20260905044456 66 81 1.0 1.0 0.00 0.00 0.00 95 1042.3
20260905043455 67 85 0.0 0.0 0.00 0.00 0.00 95 1042.2
20260905042456 67 85 0.0 0.0 0.00 0.00 0.00 95 1042.1
20260905041453 67 81 0.0 0.0 0.00 0.00 0.00 95 1042.2
20260905040453 67 91 0.0 0.0 0.00 0.00 0.00 95 1042.0
20260905035454 67 86 0.0 0.0 0.00 0.00 0.00 95 1042.0
20260905034452 67 93 0.0 0.0 0.00 0.00 0.00 95 1042.1
20260905033451 67 92 0.0 0.0 0.00 0.00 0.00 95 1041.7
20260905032447 68 91 0.0 0.0 0.00 0.00 0.00 95 1041.7
20260905031444 68 91 0.0 0.0 0.00 0.00 0.00 95 1041.8
20260905030440 68 91 0.0 0.0 0.00 0.00 0.00 95 1041.7
20260905025440 68 91 0.0 0.0 0.00 0.00 0.00 95 1041.8
20260905024437 68 91 0.0 0.0 0.00 0.00 0.00 95 1041.7
20260905023433 68 91 0.0 0.0 0.00 0.00 0.00 95 1041.8
20260905022428 68 91 0.0 0.0 0.00 0.00 0.00 95 1041.7
20260905021423 68 91 0.0 0.0 0.00 0.00 0.00 95 1041.9
20260905020424 68 92 0.0 0.0 0.00 0.00 0.00 95 1041.8
20260905015422 68 92 0.0 0.0 0.00 0.00 0.00 95 1041.8
20260905014417 68 92 0.0 0.0 0.00 0.00 0.00 95 1041.8
20260905013414 68 92 0.0 0.0 0.00 0.00 0.00 95 1041.8
20260905012410 68 92 0.0 0.0 0.00 0.00 0.00 95 1041.8
20260905011408 68 93 0.0 0.0 0.00 0.00 0.00 95 1041.5
20260905010404 68 87 0.0 0.0 0.00 0.00 0.00 95 1041.8
20260905005402 68 86 1.0 1.0 0.00 0.00 0.00 95 1041.6
20260905004357 69 103 0.0 0.0 0.00 0.00 0.00 95 1041.8
20260905003354 69 103 0.0 0.0 0.00 0.00 0.00 95 1041.9
20260905002349 70 91 1.0 1.0 0.00 0.00 0.00 95 1041.7
20260905001344 70 90 1.0 1.0 0.00 0.00 0.00 94 1041.5
20260905000341 70 92 0.0 0.0 0.00 0.00 0.00 94 1041.4
20260904235337 71 93 0.0 0.0 0.00 0.00 0.00 93 1041.2
20260904234332 71 95 0.0 0.0 0.00 0.00 0.00 94 1041.2
20260904233330 71 95 0.0 1.0 0.00 0.00 0.00 94 1041.2
20260904232328 72 96 0.0 0.0 0.00 0.00 0.00 93 1041.1
20260904231324 73 96 0.0 0.0 0.00 0.00 0.00 92 1041.0
20260904230324 73 95 0.0 0.0 0.00 0.00 0.00 91 1040.8
20260904225324 73 95 0.0 0.0 0.00 0.00 0.00 91 1041.3
20260904224319 73 93 0.0 0.0 0.00 0.00 0.00 89 1041.1
20260904223318 74 91 1.0 1.0 0.00 0.00 0.00 90 1041.2
20260904222315 75 108 0.0 0.0 0.00 0.00 0.00 87 1041.1
20260904221310 76 105 3.0 3.0 0.00 0.00 0.00 85 1041.2
20260904220310 76 92 0.0 0.0 0.00 0.00 0.00 83 1041.2
20260904215306 76 92 0.0 0.0 0.00 0.00 0.00 84 1041.3
20260904214304 76 92 0.0 1.0 0.00 0.00 0.00 82 1041.4
20260904213303 78 90 1.0 2.0 0.00 0.00 0.00 79 1041.3
20260904212259 79 84 1.0 1.0 0.00 0.00 0.00 74 1041.2
20260904211255 82 100 0.0 0.0 0.00 0.00 0.00 64 1041.1
20260904210250 83 98 1.0 1.0 0.00 0.00 0.00 64 1041.2
20260904205248 82 110 0.0 1.0 0.00 0.00 0.00 65 1040.7
20260904204246 81 123 1.0 1.0 0.00 0.00 0.00 65 1040.9
20260904203244 81 100 1.0 2.0 0.00 0.00 0.00 63 1041.2
20260904202242 79 103 1.0 1.0 0.00 0.00 0.00 70 1041.3
20260904201237 80 84 1.0 1.0 0.00 0.00 0.00 66 1041.3
20260904200232 82 93 2.0 3.0 0.00 0.00 0.00 65 1041.4
20260904195230 83 107 3.0 3.0 0.00 0.00 0.00 66 1041.8
20260904194230 82 294 5.0 6.0 0.00 0.00 0.00 65 1041.6
20260904193227 82 307 3.0 5.0 0.00 0.00 0.00 64 1042.0
20260904192223 79 304 4.0 5.0 0.00 0.00 0.00 69 1041.9
20260904191222 80 337 3.0 3.0 0.00 0.00 0.00 67 1042.0
20260904190220 81 171 4.0 6.0 0.00 0.00 0.00 63 1041.9
20260904185216 82 260 2.0 2.0 0.00 0.00 0.00 62 1042.3
20260904184211 81 60 2.0 2.0 0.00 0.00 0.00 65 1042.4
20260904183207 80 38 2.0 3.0 0.00 0.00 0.00 67 1042.6
20260904182203 81 219 3.0 5.0 0.00 0.00 0.00 64 1042.3
20260904181157 80 91 1.0 1.0 0.00 0.00 0.00 69 1042.5
20260904180154 80 58 2.0 2.0 0.00 0.00 0.00 69 1042.6
20260904175152 80 258 3.0 3.0 0.00 0.00 0.00 67 1042.7
20260904174149 82 265 4.0 5.0 0.00 0.00 0.00 66 1042.6
20260904173145 82 130 1.0 1.0 0.00 0.00 0.00 61 1042.7
20260904172141 80 158 2.0 2.0 0.00 0.00 0.00 65 1042.6
20260904171137 80 253 4.0 5.0 0.00 0.00 0.00 66 1042.7
20260904170135 82 345 4.0 5.0 0.00 0.00 0.00 65 1043.2
20260904165133 81 214 3.0 3.0 0.00 0.00 0.00 67 1042.6
20260904164129 80 283 4.0 5.0 0.00 0.00 0.00 67 1042.8
20260904163125 81 117 2.0 2.0 0.00 0.00 0.00 66 1042.8
20260904162125 82 269 4.0 6.0 0.00 0.00 0.00 65 1042.7
20260904161122 79 282 5.0 6.0 0.00 0.00 0.00 66 1042.7
20260904160119 81 100 1.0 1.0 0.00 0.00 0.00 66 1042.9
20260904155119 81 134 2.0 3.0 0.00 0.00 0.00 67 1043.1
20260904154119 79 107 0.0 1.0 0.00 0.00 0.00 72 1042.8
20260904153115 79 121 2.0 2.0 0.00 0.00 0.00 68 1043.2
20260904152112 79 126 2.0 2.0 0.00 0.00 0.00 70 1042.9
20260904151111 80 113 3.0 5.0 0.00 0.00 0.00 70 1042.7
20260904150108 78 6 3.0 3.0 0.00 0.00 0.00 76 1042.8
20260904145108 77 270 3.0 5.0 0.00 0.00 0.00 79 1043.1
20260904144105 76 148 3.0 3.0 0.00 0.00 0.00 82 1043.2
20260904143103 75 261 2.0 2.0 0.00 0.00 0.00 83 1043.5
20260904142059 76 99 1.0 1.0 0.00 0.00 0.00 85 1043.4
20260904141055 75 133 2.0 3.0 0.00 0.00 0.00 85 1043.4
20260904140051 76 130 2.0 2.0 0.00 0.00 0.00 83 1043.1
20260904135047 76 110 7.0 7.0 0.00 0.00 0.00 85 1043.1
20260904134042 75 89 0.0 0.0 0.00 0.00 0.00 86 1042.8
20260904133039 73 84 1.0 2.0 0.00 0.00 0.00 89 1042.9
20260904132039 73 70 2.0 2.0 0.00 0.00 0.00 90 1042.9
20260904131034 73 133 1.0 1.0 0.00 0.00 0.00 90 1042.9
20260904130035 74 359 2.0 2.0 0.00 0.00 0.00 89 1042.6
20260904125031 75 107 1.0 1.0 0.00 0.00 0.00 87 1043.1
20260904124028 72 106 0.0 0.0 0.00 0.00 0.00 92 1043.3
20260904123024 71 106 0.0 1.0 0.00 0.00 0.00 93 1043.3
20260904122019 68 106 0.0 1.0 0.00 0.00 0.00 95 1043.1
20260904121016 68 91 0.0 0.0 0.00 0.00 0.00 95 1043.3
20260904120014 66 93 0.0 0.0 0.00 0.00 0.00 95 1043.2
20260904115008 66 93 0.0 0.0 0.00 0.00 0.00 95 1043.3
20260904114004 66 92 0.0 0.0 0.00 0.00 0.00 95 1043.3
20260904113003 66 93 0.0 0.0 0.00 0.00 0.00 95 1043.3
20260904112000 65 93 0.0 0.0 0.00 0.00 0.00 95 1043.2
20260904110957 65 79 0.0 0.0 0.00 0.00 0.00 95 1042.9
20260904105952 65 90 0.0 0.0 0.00 0.00 0.00 95 1042.9
20260904104947 65 90 0.0 0.0 0.00 0.00 0.00 95 1042.7
20260904103944 65 90 0.0 0.0 0.00 0.00 0.00 95 1042.5
20260904102942 65 95 0.0 0.0 0.00 0.00 0.00 95 1042.6
20260904101938 66 95 0.0 0.0 0.00 0.00 0.00 95 1042.2
20260904100936 66 95 0.0 0.0 0.00 0.00 0.00 95 1042.3
20260904095932 66 95 0.0 0.0 0.00 0.00 0.00 95 1042.5
20260904094927 65 83 0.0 0.0 0.00 0.00 0.00 95 1042.5
20260904093924 65 83 0.0 0.0 0.00 0.00 0.00 95 1042.7
20260904092920 66 83 0.0 0.0 0.00 0.00 0.00 95 1042.6
20260904091919 66 82 0.0 0.0 0.00 0.00 0.00 95 1042.6
20260904090914 66 76 0.0 0.0 0.00 0.00 0.00 95 1042.3
20260904085911 66 86 0.0 0.0 0.00 0.00 0.00 95 1042.4